TimeCST,TemperatureF,Dew PointF,Humidity,Sea Level PressureIn,VisibilityMPH,Wind Direction,Wind SpeedMPH,Gust SpeedMPH,PrecipitationIn,Events,Conditions,WindDirDegrees,DateUTC
12:45 AM,62.6,57.2,82,29.95,10.0,ESE,9.2,-,N/A,,Overcast,110,2012-12-20 06:45:00
12:56 AM,63.0,57.0,81,29.91,10.0,ESE,5.8,-,N/A,,Overcast,110,2012-12-20 06:56:00
1:56 AM,64.0,59.0,84,29.90,10.0,ESE,6.9,-,0.00,,Overcast,110,2012-12-20 07:56:00
2:06 AM,64.4,59.0,83,29.94,10.0,ESE,6.9,-,N/A,,Overcast,110,2012-12-20 08:06:00
2:56 AM,68.0,63.0,84,29.88,8.0,SSE,9.2,-,0.00,Rain,Light Rain,150,2012-12-20 08:56:00
3:56 AM,71.1,66.0,84,29.88,7.0,South,17.3,20.7,0.05,Rain,Light Rain,180,2012-12-20 09:56:00
4:56 AM,71.1,66.9,87,29.86,7.0,South,17.3,-,0.00,,Overcast,180,2012-12-20 10:56:00
5:56 AM,72.0,68.0,87,29.85,6.0,South,20.7,29.9,N/A,,Overcast,180,2012-12-20 11:56:00
6:56 AM,72.0,68.0,87,29.85,6.0,South,20.7,28.8,N/A,,Overcast,180,2012-12-20 12:56:00
7:56 AM,73.0,69.1,87,29.83,6.0,South,20.7,31.1,N/A,,Overcast,180,2012-12-20 13:56:00
8:09 AM,73.4,69.8,88,29.87,6.0,South,18.4,32.2,0.00,Rain,Light Rain,180,2012-12-20 14:09:00
8:30 AM,73.4,69.8,88,29.86,6.0,South,19.6,31.1,0.00,,Overcast,190,2012-12-20 14:30:00
8:39 AM,73.4,69.8,88,29.86,5.0,South,24.2,31.1,0.00,Rain,Light Rain,170,2012-12-20 14:39:00
8:42 AM,73.4,69.8,88,29.86,1.5,South,26.5,34.5,0.05,Rain,Rain,190,2012-12-20 14:42:00
8:56 AM,73.0,69.1,87,29.80,1.5,WSW,13.8,23.0,0.21,Rain-Thunderstorm,Thunderstorms and Rain,240,2012-12-20 14:56:00
9:03 AM,73.4,66.2,78,29.86,3.0,SW,17.3,24.2,0.01,Rain-Thunderstorm,Light Thunderstorms and Rain,220,2012-12-20 15:03:00
9:20 AM,73.4,68.0,83,29.87,1.0,SSW,20.7,39.1,0.03,Rain-Thunderstorm,Thunderstorms and Rain,210,2012-12-20 15:20:00
9:29 AM,73.4,69.8,88,29.87,1.0,SW,16.1,28.8,0.11,Rain,Heavy Rain,220,2012-12-20 15:29:00
9:36 AM,73.4,69.8,88,29.87,3.0,SSW,18.4,28.8,0.11,Rain,Light Rain,210,2012-12-20 15:36:00
9:43 AM,73.4,66.2,78,29.86,6.0,SSW,18.4,32.2,0.11,Rain,Light Rain,210,2012-12-20 15:43:00
9:56 AM,73.0,66.0,79,29.81,10.0,SW,17.3,31.1,0.11,,Mostly Cloudy,220,2012-12-20 15:56:00
10:56 AM,75.0,68.0,79,29.78,7.0,SW,16.1,21.9,0.00,Rain,Light Rain,230,2012-12-20 16:56:00
11:05 AM,75.2,68.0,78,29.81,9.0,SW,17.3,23.0,0.00,,Overcast,220,2012-12-20 17:05:00
11:34 AM,69.8,60.8,73,29.84,0.2,WNW,27.6,38.0,0.10,Rain,Heavy Rain,300,2012-12-20 17:34:00
11:39 AM,62.6,55.4,77,29.85,0.2,WNW,24.2,40.3,0.29,Rain,Heavy Rain,290,2012-12-20 17:39:00
11:45 AM,60.8,53.6,77,29.84,3.0,WNW,15.0,34.5,0.32,Rain,Light Rain,290,2012-12-20 17:45:00
11:56 AM,63.0,55.9,78,29.80,10.0,WNW,12.7,-,0.32,,Mostly Cloudy,290,2012-12-20 17:56:00
12:56 PM,64.9,48.9,56,29.78,10.0,WNW,13.8,-,N/A,,Mostly Cloudy,290,2012-12-20 18:56:00
1:56 PM,66.9,45.0,45,29.79,10.0,WNW,12.7,-,N/A,,Mostly Cloudy,300,2012-12-20 19:56:00
2:56 PM,66.0,41.0,40,29.82,10.0,WNW,12.7,-,N/A,,Mostly Cloudy,290,2012-12-20 20:56:00
3:56 PM,64.0,39.0,40,29.85,10.0,WNW,10.4,20.7,N/A,,Mostly Cloudy,300,2012-12-20 21:56:00
4:56 PM,60.1,30.0,32,29.90,10.0,NW,15.0,23.0,N/A,,Scattered Clouds,310,2012-12-20 22:56:00
5:56 PM,55.9,30.9,39,29.96,10.0,NW,11.5,-,N/A,,Scattered Clouds,320,2012-12-20 23:56:00
6:56 PM,53.1,30.9,43,30.01,10.0,NW,11.5,-,N/A,,Scattered Clouds,310,2012-12-21 00:56:00
7:56 PM,52.0,30.0,43,30.05,10.0,NW,16.1,21.9,N/A,,Scattered Clouds,310,2012-12-21 01:56:00
8:56 PM,50.0,30.0,46,30.10,10.0,NW,18.4,23.0,N/A,,Clear,310,2012-12-21 02:56:00
9:56 PM,48.0,28.9,48,30.12,10.0,NW,11.5,-,N/A,,Clear,310,2012-12-21 03:56:00
10:56 PM,46.9,28.0,48,30.13,10.0,WNW,13.8,-,N/A,,Clear,300,2012-12-21 04:56:00
11:56 PM,46.9,24.1,41,30.14,10.0,NW,10.4,-,N/A,,Clear,320,2012-12-21 05:56:00